Regional Weather Roundup
Issued by NWS

Home | Current Version | Previous Version | Text Only | Print | Product List | Glossary Off
Versions: 1 2 3 4 5 6 7 8 9 10 11 12 13 14 15 16 17 18 19 20 21 22 23 24 25 26 27 28 29 30 31 32 33 34 35 36 37 38 39 40 41 42 43 44 45 46 47 48 49 50

000
ASUS43 KIND 290209
RWRIN

WEATHER ROUNDUP FOR INDIANA
NATIONAL WEATHER SERVICE INDIANAPOLIS IN
1000 PM EDT THU JUL 28 2016

NOTE: "FAIR" INDICATES FEW OR NO CLOUDS BELOW 12,000 FEET WITH NO
SIGNIFICANT WEATHER AND/OR OBSTRUCTIONS TO VISIBILITY.

* - STATION DOES NOT REPORT WEATHER SUCH AS PRECIPITATION OR FOG.

+ - STATION NOT QUALITY CONTROLLED BY THE NATIONAL WEATHER SERVICE.
    USE DATA WITH CAUTION...ESPECIALLY DEWPOINT AND RELATIVE
    HUMIDITY OBSERVATIONS.

INZ001>003-010>013-019-020-290300-
NORTHWEST INDIANA

CITY           SKY/WX    TMP DP  RH WIND       PRES   REMARKS
KNOX *+        CLEAR     68  63  83 CALM      29.90R
LA PORTE +     PTCLDY    71  71 100 CALM      29.93R
MICHIGAN CITY+ CLOUDY    68  68 100 CALM      29.92R
MONTICELLO +   MOCLDY    75  69  80 CALM      29.89R
RENSSELAER +   CLEAR     73  72  94 CALM      29.89S
VALPARAISO     PTCLDY    71  67  87 N5        29.92R

$$

LMZ046-743>745-290300-
SOUTHERN LAKE MICHIGAN

STATION/POSITION TIME  TEMP    WIND        PRES    WAVE
                       AIR SEA DIR/SP/G            HT
                 (UTC) (F)     (DEG/KT/KT) (MB)    (FT)
BURNS HARBOR     0100   77     360/  7/  9 1012.5R
MICHIGAN CITY    0100   75      80/  2/  2   N/A
5NW MICH CITY    0200   76 77   70/  6/ 10   N/A     1

$$

INZ004-005-014>016-021>024-290300-
NORTH CENTRAL INDIANA

CITY           SKY/WX    TMP DP  RH WIND       PRES   REMARKS
GOSHEN         PTCLDY    71  67  87 CALM      29.91R
LOGANSPORT +   CLEAR     73  66  78 N6        29.91R
ROCHESTER +    CLEAR     73  68  83 E3        29.90S
SOUTH BEND     PTCLDY    69  67  93 CALM      29.92R
WARSAW +       CLOUDY    70  66  88 CALM      29.91R

$$

INZ006>009-017-018-025>027-290300-
NORTHEAST INDIANA

CITY           SKY/WX    TMP DP  RH WIND       PRES   REMARKS
ANGOLA *+        N/A     75  70  83 CALM      29.89F
AUBURN +       PTCLDY    73  63  68 CALM      29.91R
FORT WAYNE     MOCLDY    74  71  91 CALM      29.89R
HUNTINGTON +   MOCLDY    73  69  87 CALM      29.89S

$$

INZ028-029-035-036-043>045-051>053-290300-
WEST CENTRAL INDIANA

CITY           SKY/WX    TMP DP  RH WIND       PRES   REMARKS
CRAWFORDSVL +  CLEAR     70  70 100 CALM      29.90S
GREENCASTLE +  CLOUDY    70  70 100 CALM      29.91S FOG
LAFAYETTE      CLEAR     73  71  93 CALM      29.88R
TERRE HAUTE    MOCLDY    73  68  84 CALM      29.90R

$$

INZ030>032-037>040-046>048-054>057-064-065-290300-
CENTRAL INDIANA

CITY           SKY/WX    TMP DP  RH WIND       PRES   REMARKS
COLUMBUS       PTCLDY    73  72  94 N6        29.89F
FISHERS *+     CLEAR     70  70 100 SW3       29.90
INDIANAPOLIS   PTCLDY    74  67  78 CALM      29.91R
-EAGLE CREEK   CLEAR     78  67  68 SW3       29.89S
KOKOMO *+      CLEAR     72  64  78 CALM      29.89S
MARION +       CLEAR     72  67  85 CALM      29.90S
MT COMFORT *+  PTCLDY    70  64  83 S3        29.90F
SHELBYVILLE    CLOUDY    70  66  87 N5        29.89S
ZIONSVILLE +   CLEAR     71  69  92 S3        29.91S

$$

INZ033-034-041-042-049-050-058-059-290300-
EAST CENTRAL INDIANA

CITY           SKY/WX    TMP DP  RH WIND       PRES   REMARKS
MUNCIE         PTCLDY    78  67  68 CALM      29.90R

$$

INZ060-061-067>069-081>083-085>088-290300-
SOUTHWEST INDIANA

CITY           SKY/WX    TMP DP  RH WIND       PRES   REMARKS
EVANSVILLE     MOCLDY    72  69  90 S6        29.90F
HUNTINGBURG *+ CLOUDY    73  66  78 SW8       29.92R THUNDER
WASHINGTON +   MOCLDY    73  73 100 MISG      29.90S

$$

INZ062-063-066-070>080-084-089>092-290300-
SOUTH CENTRAL AND SOUTHEAST INDIANA

CITY           SKY/WX    TMP DP  RH WIND       PRES   REMARKS
BLOOMINGTON    CLEAR     71  67  87 CALM      29.92R
MADISON *+     CLOUDY    72  70  94 CALM      29.93S
NORTH VERNON + PTCLDY   N/A N/A N/A CALM      29.91R FOG
SEYMOUR +      MOCLDY    73  73 100 CALM      29.89S FOG

$$




USA.gov is the U.S. government's official web portal to all federal, state and local government web resources and services.